Location: Atbuku
(36.4936°N, 30.4362°E)
Time: 05:31:31
(UTC+00:00)

Cosmos 2227 Rocket - Pass Details

Date: 11 December 2025
Orbit: 838 x 843 km, 71.0° (Epoch: 13 January)

Event Time Altitude Azimuth Distance (km) Brightness Sun altitude
Rises 15:13:47 0° 347° (NNW) 3,398 5.2 -6.4°
Reaches altitude 10° 15:16:30 10° 357° (N) 2,461 4.4 -6.9°
Maximum altitude 15:21:33 33° 61° (ENE) 1,384 2.8 -7.8°
Drops below altitude 10° 15:26:35 10° 124° (SE) 2,452 4.3 -8.7°
Sets 15:29:15 0° 134° (SE) 3,384 5.1 -9.2°
